Logansport, IN

12:02 PM EDT on July 28, 2016 (GMT -0400)
Logansport Municipal

Weather History for KGGP - October, 2013

Change the Weather History Date:

Saturday, October 26, 2013

  Actual Average Record
Temperature  
Mean Temperature 44 °F -  
Max Temperature 55 °F 62 °F 64 °F (2014)
Min Temperature 33 °F 43 °F 33 °F (2013)
Degree Days  
Heating Degree Days 21    
Moisture  
Dew Point 30 °F    
Average Humidity 61    
Maximum Humidity 87    
Minimum Humidity 38    
Precipitation  
Precipitation 0.00 in - - ()
Sea Level Pressure  
Sea Level Pressure 30.01 in    
Wind  
Wind Speed 14 mph (WSW)    
Max Wind Speed 25 mph    
Max Gust Speed 33 mph    
Visibility 10 miles    
Events      
Averages and records for this station are not official NWS values.
T = Trace of Precipitation, MM = Missing Value Source: NWS Daily Summary

Daily Weather History Graph

Daily Weather History Graph

Search for Another Location

Airport or City:

Trip Planner

Search our weather history database for the weather conditions in past years. The results will help you decide how hot, cold, wet, or windy it might be!

Date:

Astronomy

Oct. 26, 2013 Rise Set
Actual Time 8:09 AM EDT 6:49 PM EDT
Civil Twilight 7:41 AM EDT 7:17 PM EDT
Nautical Twilight 7:08 AM EDT 7:49 PM EDT
Astronomical Twilight 6:37 AM EDT 8:20 PM EDT
Moon 12:09 AM EDT (10/26) 2:25 PM EDT (10/26)
Length of Visible Light 11h 36m
Length of Day
10h 39m
Waning Gibbous, 53% of the Moon is Illuminated
Oct 26
Waning Gibbous
Oct 26
Last Quarter
Nov 3
New
Nov 10
First Quarter
Nov 17
Full

Hourly Weather History & Observations

Time (EDT) Temp. Windchill Dew Point Humidity Pressure Visibility Wind Dir Wind Speed Gust Speed Precip Events Conditions
12:15 AM 37.4 °F 29.3 °F 26.6 °F 65% 30.20 in 10.0 mi SW 12.7 mph - N/A   Clear
12:35 AM 37.4 °F 28.9 °F 26.6 °F 65% 30.19 in 10.0 mi SW 13.8 mph 19.6 mph N/A   Clear
12:55 AM 35.6 °F 27.5 °F 26.6 °F 70% 30.18 in 10.0 mi SSW 11.5 mph 17.3 mph N/A   Clear
1:15 AM 35.6 °F 26.2 °F 26.6 °F 70% 30.17 in 10.0 mi SSW 15.0 mph - N/A   Clear
1:35 AM 35.6 °F 27.5 °F 26.6 °F 70% 30.17 in 10.0 mi SSW 11.5 mph - N/A   Clear
1:55 AM 35.6 °F 28.0 °F 26.6 °F 70% 30.16 in 10.0 mi SSW 10.4 mph 17.3 mph N/A   Clear
2:15 AM 35.6 °F 28.0 °F 26.6 °F 70% 30.16 in 10.0 mi SW 10.4 mph - N/A   Clear
2:35 AM 35.6 °F 28.0 °F 26.6 °F 70% 30.15 in 10.0 mi SSW 10.4 mph - N/A   Clear
2:55 AM 33.8 °F 26.4 °F 26.6 °F 75% 30.14 in 10.0 mi SSW 9.2 mph - N/A   Clear
3:15 AM 33.8 °F 25.8 °F 26.6 °F 75% 30.13 in 10.0 mi SSW 10.4 mph - N/A   Clear
3:35 AM 33.8 °F 26.4 °F 26.6 °F 75% 30.12 in 10.0 mi SSW 9.2 mph - N/A   Clear
3:55 AM 33.8 °F 25.8 °F 26.6 °F 75% 30.12 in 10.0 mi SSW 10.4 mph - N/A   Scattered Clouds
4:15 AM 35.6 °F 28.0 °F 26.6 °F 70% 30.11 in 10.0 mi SSW 10.4 mph - N/A   Mostly Cloudy
4:35 AM 37.4 °F 28.5 °F 26.6 °F 65% 30.10 in 10.0 mi SSW 15.0 mph 19.6 mph N/A   Overcast
4:55 AM 37.4 °F 28.9 °F 26.6 °F 65% 30.09 in 10.0 mi SW 13.8 mph 18.4 mph N/A   Overcast
5:15 AM 37.4 °F 27.8 °F 26.6 °F 65% 30.08 in 10.0 mi SW 17.3 mph 21.9 mph N/A   Overcast
5:35 AM 37.4 °F 27.8 °F 26.6 °F 65% 30.07 in 10.0 mi SSW 17.3 mph 24.2 mph N/A   Overcast
5:55 AM 37.4 °F 27.2 °F 26.6 °F 65% 30.06 in 10.0 mi SW 19.6 mph 25.3 mph N/A   Mostly Cloudy
6:15 AM 35.6 °F 25.2 °F 26.6 °F 70% 30.05 in 10.0 mi SW 18.4 mph 21.9 mph N/A   Clear
6:35 AM 37.4 °F 27.8 °F 26.6 °F 65% 30.04 in 10.0 mi SW 17.3 mph 23.0 mph N/A   Mostly Cloudy
6:55 AM 37.4 °F 27.8 °F 26.6 °F 65% 30.03 in 10.0 mi SW 17.3 mph - N/A   Overcast
7:15 AM 37.4 °F 27.8 °F 26.6 °F 65% 30.02 in 10.0 mi SSW 17.3 mph 23.0 mph N/A   Overcast
7:35 AM 37.4 °F 27.8 °F 26.6 °F 65% 30.01 in 10.0 mi SSW 17.3 mph - N/A   Overcast
7:55 AM 37.4 °F 27.5 °F 26.6 °F 65% 30.00 in 10.0 mi SSW 18.4 mph 25.3 mph N/A   Overcast
8:15 AM 39.2 °F 30.2 °F 26.6 °F 61% 29.99 in 10.0 mi SSW 17.3 mph 24.2 mph N/A   Overcast
8:35 AM 39.2 °F 30.2 °F 28.4 °F 65% 29.98 in 10.0 mi SSW 17.3 mph 23.0 mph N/A   Overcast
8:55 AM 41.0 °F 32.2 °F 28.4 °F 61% 29.97 in 10.0 mi SW 18.4 mph 26.5 mph N/A   Overcast
9:15 AM 41.0 °F 31.9 °F 28.4 °F 61% 29.97 in 10.0 mi SW 19.6 mph 26.5 mph N/A   Overcast
9:35 AM 41.0 °F 31.9 °F 28.4 °F 61% 29.97 in 10.0 mi SW 19.6 mph 25.3 mph N/A   Overcast
9:55 AM 41.0 °F 31.9 °F 28.4 °F 61% 29.97 in 10.0 mi SW 19.6 mph 26.5 mph N/A   Overcast
10:15 AM 41.0 °F 31.6 °F 30.2 °F 65% 29.96 in 10.0 mi SW 20.7 mph 25.3 mph N/A   Overcast
10:35 AM 42.8 °F 34.8 °F 30.2 °F 61% 29.95 in 10.0 mi SW 17.3 mph 21.9 mph N/A   Overcast
10:55 AM 42.8 °F 34.8 °F 30.2 °F 61% 29.95 in 10.0 mi SW 17.3 mph - N/A   Overcast
11:15 AM 42.8 °F 34.5 °F 30.2 °F 61% 29.94 in 10.0 mi SW 18.4 mph 26.5 mph N/A   Overcast
11:35 AM 42.8 °F 34.5 °F 32.0 °F 66% 29.94 in 10.0 mi SW 18.4 mph 26.5 mph N/A   Overcast
11:55 AM 46.4 °F 38.3 °F 32.0 °F 57% 29.93 in 10.0 mi SW 23.0 mph 29.9 mph N/A   Scattered Clouds
12:15 PM 46.4 °F 38.7 °F 32.0 °F 57% 29.92 in 10.0 mi SW 20.7 mph 29.9 mph N/A   Scattered Clouds
12:35 PM 48.2 °F - 32.0 °F 54% 29.92 in 10.0 mi SW 25.3 mph 33.4 mph N/A   Scattered Clouds
12:55 PM 48.2 °F - 32.0 °F 54% 29.92 in 10.0 mi WSW 18.4 mph 27.6 mph N/A   Overcast
1:15 PM 50.0 °F - 33.8 °F 54% 29.91 in 10.0 mi SW 19.6 mph 25.3 mph N/A   Overcast
1:35 PM 51.8 °F - 33.8 °F 50% 29.90 in 10.0 mi WSW 19.6 mph 27.6 mph N/A   Mostly Cloudy
1:55 PM 50.0 °F - 33.8 °F 54% 29.89 in 10.0 mi WSW 21.9 mph 32.2 mph N/A   Scattered Clouds
2:15 PM 51.8 °F - 33.8 °F 50% 29.89 in 10.0 mi West 18.4 mph 26.5 mph N/A   Mostly Cloudy
2:35 PM 55.4 °F - 35.6 °F 47% 29.88 in 10.0 mi WSW 23.0 mph 29.9 mph N/A   Mostly Cloudy
2:55 PM 51.8 °F - 35.6 °F 54% 29.88 in 10.0 mi WSW 21.9 mph 29.9 mph N/A   Mostly Cloudy
3:15 PM 53.6 °F - 35.6 °F 51% 29.88 in 10.0 mi West 13.8 mph 21.9 mph N/A   Overcast
3:35 PM 53.6 °F - 33.8 °F 47% 29.88 in 10.0 mi West 17.3 mph 24.2 mph N/A   Mostly Cloudy
3:55 PM 55.4 °F - 32.0 °F 41% 29.90 in 10.0 mi West 13.8 mph 31.1 mph N/A   Scattered Clouds
4:15 PM 55.4 °F - 30.2 °F 38% 29.91 in 10.0 mi West 16.1 mph 31.1 mph N/A   Scattered Clouds
4:35 PM 53.6 °F - 30.2 °F 41% 29.91 in 10.0 mi West 16.1 mph 25.3 mph N/A   Mostly Cloudy
4:55 PM 53.6 °F - 30.2 °F 41% 29.92 in 10.0 mi WNW 11.5 mph 18.4 mph N/A   Overcast
5:15 PM 53.6 °F - 32.0 °F 44% 29.93 in 10.0 mi NW 12.7 mph 18.4 mph N/A   Overcast
5:35 PM 51.8 °F - 30.2 °F 44% 29.94 in 10.0 mi WNW 10.4 mph - N/A   Mostly Cloudy
5:55 PM 51.8 °F - 30.2 °F 44% 29.95 in 10.0 mi NW 11.5 mph 17.3 mph N/A   Scattered Clouds
6:15 PM 51.8 °F - 30.2 °F 44% 29.96 in 10.0 mi WNW 9.2 mph 16.1 mph N/A   Scattered Clouds
6:35 PM 50.0 °F - 30.2 °F 47% 29.97 in 10.0 mi WNW 10.4 mph 16.1 mph N/A   Scattered Clouds
6:55 PM 50.0 °F - 30.2 °F 47% 29.98 in 10.0 mi WNW 8.1 mph - N/A   Scattered Clouds
7:15 PM 50.0 °F - 32.0 °F 50% 29.99 in 10.0 mi WNW 6.9 mph - N/A   Overcast
7:35 PM 50.0 °F - 32.0 °F 50% 30.01 in 10.0 mi NW 9.2 mph - N/A   Overcast
7:55 PM 48.2 °F - 32.0 °F 54% 30.02 in 10.0 mi NNW 10.4 mph - N/A   Overcast
8:15 PM 46.4 °F 41.9 °F 32.0 °F 57% 30.03 in 10.0 mi NNW 9.2 mph - N/A   Overcast
8:35 PM 44.6 °F 43.1 °F 32.0 °F 61% 30.03 in 10.0 mi NNW 3.5 mph - N/A   Scattered Clouds
8:55 PM 42.8 °F 41.1 °F 32.0 °F 66% 30.04 in 10.0 mi NW 3.5 mph - N/A   Scattered Clouds
9:15 PM 42.8 °F - 32.0 °F 66% 30.05 in 10.0 mi Calm Calm - N/A   Scattered Clouds
9:35 PM 41.0 °F - 32.0 °F 70% 30.05 in 10.0 mi Calm Calm - N/A   Clear
9:55 PM 37.4 °F 34.9 °F 30.2 °F 75% 30.06 in 10.0 mi WNW 3.5 mph - N/A   Clear
10:15 PM 39.2 °F 35.9 °F 32.0 °F 75% 30.06 in 10.0 mi WNW 4.6 mph - N/A   Clear
10:35 PM 37.4 °F 34.9 °F 30.2 °F 75% 30.06 in 10.0 mi WNW 3.5 mph - N/A   Clear
10:55 PM 39.2 °F 35.9 °F 32.0 °F 75% 30.07 in 10.0 mi WNW 4.6 mph - N/A   Clear
11:15 PM 37.4 °F 34.9 °F 30.2 °F 75% 30.08 in 10.0 mi WNW 3.5 mph - N/A   Clear
11:35 PM 35.6 °F 32.8 °F 30.2 °F 81% 30.08 in 10.0 mi WNW 3.5 mph - N/A   Clear
11:55 PM 33.8 °F 28.6 °F 30.2 °F 87% 30.08 in 10.0 mi West 5.8 mph - N/A   Clear